| time (UTC) | temp C | wind direction | speed KPH | gust KPH | rain 1hr cm | rain 24hr cm | rain mn cm | humidity % | barometer mb |
| 20260507080036 | 6 | 334 | 1.6 | 6.4 | 0.00 | 1.70 | 0.05 | 92 | 1006.2 |
| 20260507074534 | 6 | 24 | 1.6 | 8.0 | 0.00 | 1.70 | 0.05 | 93 | 1006.2 |
| 20260507073035 | 6 | 11 | 1.6 | 11.3 | 0.00 | 1.70 | 0.05 | 92 | 1006.2 |
| 20260507071536 | 7 | 332 | 3.2 | 12.9 | 0.00 | 1.70 | 0.05 | 92 | 1006.0 |
| 20260507070038 | 7 | 24 | 3.2 | 16.1 | 0.00 | 1.70 | 0.05 | 93 | 1006.0 |
| 20260507064537 | 7 | 62 | 1.6 | 9.7 | 0.00 | 1.70 | 0.05 | 94 | 1005.8 |
| 20260507063037 | 7 | 282 | 1.6 | 12.9 | 0.00 | 1.70 | 0.05 | 94 | 1005.6 |
| 20260507061535 | 7 | 0 | 1.6 | 9.7 | 0.00 | 1.70 | 0.05 | 94 | 1005.6 |
| 20260507060035 | 7 | 62 | 4.8 | 22.5 | 0.00 | 1.70 | 0.05 | 95 | 1005.4 |
| 20260507054539 | 7 | 28 | 3.2 | 12.9 | 0.00 | 1.70 | 0.05 | 95 | 1005.4 |
| 20260507053032 | 7 | 346 | 3.2 | 12.9 | 0.00 | 1.70 | 0.05 | 95 | 1005.2 |
| 20260507051537 | 7 | 36 | 3.2 | 11.3 | 0.03 | 1.70 | 0.05 | 95 | 1004.9 |
| 20260507050039 | 7 | 326 | 3.2 | 16.1 | 0.05 | 1.70 | 0.05 | 95 | 1005.1 |
| 20260507044539 | 8 | 35 | 4.8 | 19.3 | 0.13 | 1.70 | 0.05 | 95 | 1005.4 |
| 20260507043032 | 8 | 352 | 6.4 | 22.5 | 0.15 | 1.70 | 0.05 | 95 | 1005.2 |
| 20260507041542 | 8 | 5 | 6.4 | 19.3 | 0.15 | 1.68 | 0.03 | 95 | 1005.3 |
| 20260507040036 | 8 | 5 | 9.7 | 27.4 | 0.18 | 1.65 | 0.00 | 95 | 1005.2 |
| 20260507034537 | 9 | 343 | 3.2 | 24.1 | 0.15 | 1.57 | 1.57 | 96 | 1005.3 |
| 20260507033036 | 10 | 342 | 4.8 | 19.3 | 0.15 | 1.55 | 1.55 | 96 | 1004.9 |
| 20260507031532 | 10 | 347 | 6.4 | 24.1 | 0.23 | 1.52 | 1.52 | 97 | 1004.8 |
| 20260507030032 | 11 | 352 | 6.4 | 20.9 | 0.18 | 1.47 | 1.47 | 97 | 1004.6 |
| 20260507024532 | 11 | 54 | 3.2 | 11.3 | 0.13 | 1.42 | 1.42 | 97 | 1004.5 |
| 20260507023034 | 12 | 13 | 3.2 | 12.9 | 0.10 | 1.40 | 1.40 | 97 | 1004.5 |
| 20260507021536 | 13 | 286 | 0.0 | 3.2 | 0.00 | 1.30 | 1.30 | 98 | 1004.2 |
| 20260507020043 | 13 | 172 | 0.0 | 3.2 | 0.00 | 1.30 | 1.30 | 98 | 1004.0 |
| 20260507014542 | 13 | 0 | 0.0 | 6.4 | 0.00 | 1.30 | 1.30 | 98 | 1004.2 |
| 20260507013032 | 13 | 190 | 0.0 | 9.7 | 0.00 | 1.30 | 1.30 | 97 | 1004.3 |
| 20260507011532 | 13 | 0 | 0.0 | 6.4 | 0.00 | 1.30 | 1.30 | 97 | 1004.3 |
| 20260507010034 | 13 | 264 | 1.6 | 9.7 | 0.00 | 1.30 | 1.30 | 97 | 1004.4 |
| 20260507004541 | 13 | 240 | 1.6 | 11.3 | 0.00 | 1.30 | 1.30 | 97 | 1004.4 |
| 20260507003034 | 13 | 180 | 3.2 | 14.5 | 0.00 | 1.30 | 1.30 | 97 | 1004.2 |
| 20260507001531 | 13 | 125 | 3.2 | 20.9 | 0.00 | 1.30 | 1.30 | 97 | 1004.1 |
| 20260507000032 | 13 | 131 | 4.8 | 17.7 | 0.00 | 1.30 | 1.30 | 97 | 1004.0 |
| 20260506234537 | 13 | 147 | 8.0 | 32.2 | 0.00 | 1.32 | 1.30 | 97 | 1004.0 |
| 20260506233038 | 13 | 126 | 4.8 | 24.1 | 0.03 | 1.32 | 1.30 | 97 | 1004.1 |
| 20260506231547 | 13 | 175 | 6.4 | 22.5 | 0.05 | 1.32 | 1.30 | 97 | 1004.0 |
| 20260506230050 | 13 | 159 | 8.0 | 22.5 | 0.08 | 1.32 | 1.30 | 97 | 1004.1 |
| 20260506224535 | 13 | 186 | 6.4 | 16.1 | 0.13 | 1.32 | 1.30 | 97 | 1004.3 |
| 20260506223046 | 13 | 163 | 6.4 | 24.1 | 0.13 | 1.30 | 1.27 | 97 | 1004.5 |
| 20260506221535 | 13 | 138 | 4.8 | 16.1 | 0.13 | 1.27 | 1.24 | 97 | 1004.6 |
| 20260506220033 | 13 | 143 | 4.8 | 12.9 | 0.28 | 1.24 | 1.22 | 97 | 1004.9 |
| 20260506214536 | 14 | 153 | 4.8 | 12.9 | 0.38 | 1.17 | 1.14 | 97 | 1005.1 |
| 20260506213045 | 14 | 178 | 3.2 | 11.3 | 0.43 | 1.17 | 1.14 | 97 | 1005.2 |
| 20260506211547 | 14 | 198 | 3.2 | 16.1 | 0.46 | 1.14 | 1.12 | 97 | 1005.4 |
| 20260506210035 | 14 | 185 | 1.6 | 16.1 | 0.30 | 0.94 | 0.91 | 96 | 1005.4 |
| 20260506204534 | 14 | 124 | 1.6 | 14.5 | 0.20 | 0.79 | 0.76 | 96 | 1005.4 |
| 20260506203034 | 14 | 161 | 4.8 | 16.1 | 0.15 | 0.71 | 0.69 | 96 | 1005.3 |
| 20260506201538 | 14 | 175 | 1.6 | 22.5 | 0.13 | 0.69 | 0.66 | 96 | 1005.4 |
| 20260506200032 | 14 | 204 | 4.8 | 14.5 | 0.10 | 0.64 | 0.61 | 96 | 1005.6 |
| 20260506194537 | 14 | 152 | 3.2 | 12.9 | 0.08 | 0.58 | 0.56 | 96 | 1005.8 |
| 20260506193037 | 14 | 189 | 3.2 | 11.3 | 0.10 | 0.56 | 0.53 | 96 | 1005.9 |
| 20260506191543 | 14 | 128 | 3.2 | 16.1 | 0.15 | 0.56 | 0.53 | 96 | 1005.9 |
| 20260506190035 | 14 | 123 | 3.2 | 16.1 | 0.43 | 0.53 | 0.51 | 95 | 1006.0 |
| 20260506184533 | 15 | 163 | 4.8 | 12.9 | 0.46 | 0.51 | 0.48 | 95 | 1006.3 |
| 20260506183042 | 15 | 157 | 3.2 | 12.9 | 0.43 | 0.46 | 0.43 | 94 | 1006.4 |
| 20260506181532 | 15 | 178 | 1.6 | 6.4 | 0.38 | 0.41 | 0.38 | 94 | 1006.5 |
| 20260506180036 | 15 | 288 | 0.0 | 4.8 | 0.08 | 0.10 | 0.08 | 92 | 1006.4 |
| 20260506174531 | 16 | 259 | 1.6 | 9.7 | 0.03 | 0.05 | 0.03 | 90 | 1006.3 |
| 20260506173031 | 16 | 203 | 4.8 | 12.9 | 0.00 | 0.03 | 0.00 | 87 | 1006.2 |
| 20260506171539 | 16 | 188 | 1.6 | 9.7 | 0.00 | 0.03 | 0.00 | 88 | 1006.6 |
| 20260506170046 | 16 | 0 | 0.0 | 6.4 | 0.00 | 0.03 | 0.00 | 89 | 1006.7 |
| 20260506164534 | 17 | 0 | 0.0 | 6.4 | 0.00 | 0.03 | 0.00 | 87 | 1007.1 |
| 20260506163035 | 17 | 175 | 3.2 | 11.3 | 0.00 | 0.03 | 0.00 | 87 | 1007.7 |
| 20260506161533 | 17 | 190 | 4.8 | 11.3 | 0.00 | 0.03 | 0.00 | 83 | 1008.0 |
| 20260506160039 | 17 | 99 | 1.6 | 6.4 | 0.00 | 0.03 | 0.00 | 82 | 1008.0 |
| 20260506154541 | 17 | 0 | 1.6 | 9.7 | 0.00 | 0.03 | 0.00 | 81 | 1008.4 |
| 20260506153034 | 17 | 205 | 1.6 | 11.3 | 0.00 | 0.03 | 0.00 | 79 | 1008.6 |
| 20260506151537 | 17 | 235 | 3.2 | 9.7 | 0.00 | 0.03 | 0.00 | 79 | 1008.5 |
| 20260506150035 | 17 | 71 | 1.6 | 12.9 | 0.00 | 0.03 | 0.00 | 80 | 1008.5 |
| 20260506144538 | 16 | 220 | 1.6 | 9.7 | 0.00 | 0.03 | 0.00 | 80 | 1008.3 |
| 20260506143034 | 16 | 0 | 1.6 | 14.5 | 0.00 | 0.03 | 0.00 | 79 | 1008.1 |
| 20260506141535 | 16 | 148 | 0.0 | 8.0 | 0.00 | 0.03 | 0.00 | 83 | 1008.3 |
| 20260506140034 | 15 | 149 | 0.0 | 6.4 | 0.00 | 0.03 | 0.00 | 83 | 1008.6 |
| 20260506134532 | 15 | 0 | 0.0 | 4.8 | 0.00 | 0.03 | 0.00 | 84 | 1008.8 |
| 20260506133032 | 15 | 0 | 0.0 | 8.0 | 0.00 | 0.03 | 0.00 | 83 | 1008.8 |
| 20260506131535 | 15 | 182 | 0.0 | 9.7 | 0.00 | 0.03 | 0.00 | 83 | 1008.9 |
| 20260506130033 | 15 | 117 | 0.0 | 3.2 | 0.00 | 0.03 | 0.00 | 83 | 1008.7 |
| 20260506124536 | 15 | 169 | 1.6 | 6.4 | 0.00 | 0.03 | 0.00 | 82 | 1008.9 |
| 20260506123035 | 15 | 0 | 0.0 | 4.8 | 0.00 | 0.03 | 0.00 | 82 | 1008.9 |
| 20260506121531 | 14 | 107 | 1.6 | 6.4 | 0.00 | 0.03 | 0.00 | 84 | 1009.1 |
| 20260506120040 | 13 | 132 | 0.0 | 6.4 | 0.00 | 0.03 | 0.00 | 86 | 1009.2 |
| 20260506114534 | 13 | 0 | 0.0 | 11.3 | 0.00 | 0.03 | 0.00 | 87 | 1009.4 |
| 20260506113036 | 12 | 116 | 0.0 | 6.4 | 0.00 | 0.03 | 0.00 | 87 | 1009.4 |
| 20260506111531 | 12 | 108 | 0.0 | 6.4 | 0.00 | 0.03 | 0.00 | 88 | 1009.8 |
| 20260506110033 | 12 | 165 | 0.0 | 3.2 | 0.00 | 0.03 | 0.00 | 88 | 1009.5 |
| 20260506104533 | 12 | 115 | 1.6 | 8.0 | 0.00 | 0.03 | 0.00 | 89 | 1009.4 |
| 20260506103040 | 12 | 0 | 0.0 | 6.4 | 0.00 | 0.03 | 0.00 | 89 | 1009.2 |
| 20260506101536 | 12 | 113 | 3.2 | 12.9 | 0.00 | 0.03 | 0.00 | 90 | 1009.2 |
| 20260506100034 | 12 | 76 | 1.6 | 9.7 | 0.00 | 0.03 | 0.00 | 92 | 1009.2 |
| 20260506094533 | 11 | 0 | 0.0 | 4.8 | 0.00 | 0.03 | 0.00 | 93 | 1009.2 |
| 20260506093033 | 12 | 0 | 0.0 | 6.4 | 0.00 | 0.03 | 0.00 | 93 | 1009.2 |
| 20260506091535 | 12 | 78 | 0.0 | 3.2 | 0.00 | 0.03 | 0.00 | 92 | 1009.0 |
| 20260506090043 | 12 | 80 | 1.6 | 4.8 | 0.00 | 0.03 | 0.00 | 92 | 1008.8 |
| 20260506084541 | 13 | 78 | 0.0 | 4.8 | 0.00 | 0.03 | 0.00 | 90 | 1009.1 |
| 20260506083036 | 13 | 98 | 1.6 | 4.8 | 0.00 | 0.03 | 0.00 | 90 | 1008.8 |
| 20260506081537 | 13 | 0 | 0.0 | 6.4 | 0.00 | 0.03 | 0.00 | 90 | 1008.9 |